Location: Gro�sch�nbrunn
(49.5760°N, 11.8868°E)
Time: 09:20:50
(UTC+00:00)

N. Korean satellite - Pass Details

Date: 28 November 2020
Orbit: 453 x 502 km, 97.2° (Epoch: 16 January)

Event Time Altitude Azimuth Distance (km) Brightness Sun altitude
Rises 03:53:36 0° 26° (NNE) 2,550 10.5 -26.8°
Reaches altitude 10° 03:56:06 10° 44° (NE) 1,675 9.8 -26.4°
Maximum altitude 03:58:47 20° 93° (E) 1,200 9.3 -26.0°
Drops below altitude 10° 04:01:28 10° 141° (SE) 1,683 9.8 -25.5°
Sets 04:03:59 0° 159° (SSE) 2,567 10.6 -25.1°
